Wind_Speed
24 24 24 24 23 23 23 23 22 22 22 22 22 21 21 21 21 21 22 22 22 22 21 21 22 21 22 22 22 23 24 24 25 25 26 25 25 25 25 25 25 24 25
25 25 25 25 24 23 23 22 22 21 21 22 22 22 21 21 22 21 22 22 23 23 23 22 23 23 22 23 24 23 23 24 24 25 26 26 27 27 27 26 26 26 26
25 25 25 25 24 24 24 24 23 22 21 21 21 21 22 22 22 22 22 22 22 23 23 23 23 23 23 23 23 23 24 24 25 25 25 26 27 28 28 27 27 27 27
25 26 26 24 24 24 24 24 23 22 21 21 21 21 21 21 22 22 22 22 23 23 23 23 24 24 24 24 24 23 24 25 25 26 26 27 27 28 29 29 29 29 29
25 26 24 24 24 24 23 23 22 21 21 21 21 21 21 21 21 22 22 22 23 23 23 23 23 24 25 25 25 25 24 26 26 26 27 27 27 28 29 29 30 30 29
26 25 24 23 23 23 22 22 22 22 22 21 21 21 21 22 21 22 23 23 23 23 24 24 23 23 24 24 24 25 25 26 26 27 27 28 29 29 29 30 30 30 30
23 23 23 22 22 23 22 21 21 22 22 22 22 21 22 22 22 22 22 22 23 23 23 24 24 24 24 24 25 25 25 26 26 27 28 29 29 30 30 31 31 31 31
23 23 23 22 22 22 22 21 22 22 22 22 22 22 22 22 22 22 22 23 23 23 23 24 24 25 25 25 25 26 26 27 27 27 29 30 30 30 30 31 32 32 32
23 22 22 22 23 22 22 22 22 22 22 22 22 21 21 21 22 22 23 23 23 24 24 24 24 26 26 26 26 27 27 28 29 30 30 30 31 31 31 31 32 33 33
23 23 23 22 22 21 21 22 22 22 21 21 21 22 22 22 22 22 23 23 24 24 25 25 26 27 28 28 28 29 29 30 31 31 32 32 32 32 32 33 33 34 34
23 23 23 22 22 22 22 21 21 20 21 21 21 22 23 22 22 23 23 24 24 24 25 26 27 28 29 29 29 30 31 31 32 32 32 33 33 34 34 34 35 35 36
23 23 21 21 21 21 20 20 20 21 21 21 21 22 22 22 22 22 23 24 24 25 26 26 27 28 29 30 30 30 31 32 32 32 32 32 33 34 35 36 36 36 37
21 21 21 21 20 20 20 20 20 20 20 21 21 22 22 22 23 23 23 23 24 25 26 27 27 28 29 30 30 30 31 31 32 32 33 33 33 34 35 35 36 37 37
21 20 20 20 20 19 19 20 20 20 21 21 22 23 23 23 23 24 24 24 24 25 26 27 28 29 29 30 30 30 30 32 33 33 33 33 34 35 36 36 36 36 37
20 19 19 19 19 19 19 20 19 20 20 21 22 22 23 23 23 23 24 24 25 25 25 27 28 29 28 28 29 30 30 31 32 33 33 33 33 34 35 36 36 36 36
19 19 17 18 18 18 19 19 18 18 19 20 21 21 21 22 22 22 23 24 24 24 25 26 26 26 27 28 29 29 30 31 31 33 33 33 33 33 35 36 37 37 37
17 17 17 17 17 17 18 18 18 18 19 20 21 20 19 19 20 21 21 22 22 23 23 24 25 25 26 26 27 27 29 30 31 32 33 33 34 34 34 36 37 38 37
15 16 16 17 17 16 16 17 17 17 18 19 19 18 18 17 17 18 19 20 21 21 21 22 22 23 24 25 26 26 27 28 30 31 32 32 33 34 35 36 37 37 38
14 15 15 16 15 15 16 16 17 18 19 19 19 17 17 17 17 18 18 18 19 20 20 20 21 22 23 25 25 27 27 28 29 29 30 31 32 33 34 36 36 37 38
13 13 13 14 14 15 16 16 17 17 18 18 17 16 16 17 17 16 17 18 18 19 19 20 21 21 22 23 24 25 26 27 27 28 28 29 31 32 33 34 35 36 37
13 12 12 13 13 14 15 15 16 15 16 16 15 15 15 15 15 16 17 18 18 19 19 20 20 20 20 21 22 23 24 25 26 26 26 28 30 31 31 32 34 36 36
13 12 13 13 13 13 14 14 15 15 15 14 14 14 14 14 15 16 17 17 18 18 19 19 19 19 19 20 21 23 23 23 24 25 25 26 27 29 30 31 32 33 34
12 12 12 12 13 13 13 14 14 14 13 13 13 14 14 14 14 15 16 16 17 18 18 18 18 18 19 19 20 21 22 23 23 24 25 24 25 27 28 29 29 31 32
12 10 11 12 12 13 13 14 14 13 13 13 13 13 13 14 14 15 15 16 16 17 17 17 17 17 17 18 19 19 21 21 23 24 24 25 25 25 26 28 29 30 31
11 10 12 12 12 12 13 13 13 13 13 12 13 13 13 14 14 15 15 15 16 16 17 17 17 17 18 18 18 19 19 20 21 23 24 24 25 26 27 27 28 29 31
13 13 13 13 12 12 13 13 12 12 12 12 13 13 13 13 14 14 15 15 16 16 16 17 18 18 18 19 18 18 18 19 20 21 22 24 25 25 25 26 27 28 29
Wind_Direction
281 281 282 280 279 279 277 277 277 276 276 275 273 273 271 270 268 266 263 263 260 257 257 257 256 255 254 253 253 252 249 247 245 245 245 245 245 245 244 245 244 243 244
281 279 279 279 277 276 276 276 275 275 275 273 273 273 273 271 268 266 265 264 261 258 258 256 255 256 254 253 252 250 249 248 246 246 247 246 246 246 245 245 245 244 243
281 280 279 276 274 274 275 276 276 274 274 271 269 270 270 271 268 265 264 264 261 258 257 257 256 255 255 254 253 251 250 249 247 247 248 248 248 247 246 246 245 244 244
283 279 277 276 277 278 277 274 275 272 272 270 269 269 270 269 269 265 263 263 261 259 257 257 256 255 255 255 254 253 251 249 249 249 249 250 250 249 248 246 245 244 244
287 280 277 275 279 280 276 274 274 274 274 272 270 270 269 270 267 265 265 265 262 260 260 258 257 256 256 256 255 255 252 251 251 251 251 252 252 252 249 247 246 245 244
288 285 279 275 277 277 276 277 276 275 274 271 269 269 269 268 265 264 265 265 262 260 261 259 260 257 257 257 256 256 256 253 253 254 254 254 254 252 250 248 247 246 245
287 283 282 277 275 275 274 276 275 275 273 271 270 271 270 268 264 264 265 265 262 260 260 260 259 256 255 257 256 256 255 254 254 254 254 255 254 252 250 249 247 247 246
286 285 282 275 275 275 275 275 275 275 274 273 272 272 271 268 265 264 265 264 262 261 261 261 261 258 256 256 257 256 255 255 255 255 255 256 253 251 250 249 246 246 246
286 284 283 280 278 278 275 274 274 274 273 273 272 272 272 269 265 263 264 264 263 263 263 262 260 258 259 260 259 257 257 257 258 256 255 255 253 251 249 250 248 247 247
281 281 282 281 280 277 276 276 276 274 274 274 273 272 272 270 267 264 264 264 266 266 265 263 261 260 260 260 260 259 259 260 259 258 256 255 254 253 251 250 250 248 248
280 281 281 279 278 278 276 275 275 274 274 274 274 273 271 271 269 265 265 265 267 267 266 264 261 260 260 260 261 260 261 261 260 259 257 255 253 252 251 249 249 249 248
281 280 280 279 277 278 277 275 275 276 273 272 273 273 272 272 272 268 267 266 266 266 265 264 262 261 261 261 262 262 261 261 259 257 256 256 253 251 250 250 250 249 248
283 281 280 280 278 277 277 279 279 279 275 272 273 275 274 274 272 269 269 266 265 265 265 265 264 263 263 263 263 262 261 260 259 257 256 255 253 251 250 250 249 249 249
284 283 281 280 279 280 279 279 280 281 279 274 273 275 275 276 276 273 271 268 265 264 265 265 265 265 266 264 265 263 261 259 258 257 257 255 254 252 251 250 249 250 250
285 282 280 278 279 279 280 280 282 282 283 280 277 278 278 277 277 274 271 269 268 266 267 268 267 266 267 266 267 265 261 259 259 258 257 257 255 253 250 249 248 249 250
284 283 280 276 277 281 282 281 281 282 284 285 285 285 282 279 278 273 272 271 269 269 270 271 270 270 268 268 268 266 263 263 261 260 258 257 255 253 251 249 248 248 249
284 282 277 276 279 282 282 282 283 284 287 287 289 287 285 282 279 275 273 272 271 271 271 272 272 272 271 270 269 267 264 264 262 261 260 258 256 254 252 250 250 250 251
286 283 280 279 279 281 283 282 282 284 288 290 290 286 286 287 285 280 276 274 273 274 275 275 274 273 272 271 269 267 266 266 265 262 260 257 255 254 253 251 251 252 253
288 286 283 280 278 280 283 283 283 284 287 290 290 287 287 286 286 282 279 278 276 277 278 278 278 277 273 270 269 268 268 267 265 263 260 259 257 257 255 254 253 254 254
293 291 287 281 279 280 285 286 284 285 286 289 290 289 288 286 286 283 283 283 282 282 281 282 283 282 277 274 273 270 269 269 267 264 261 261 260 259 258 257 256 256 256
294 291 287 284 283 284 287 288 288 285 287 291 290 289 289 288 288 286 286 286 284 284 283 284 286 283 279 276 275 272 272 270 268 269 263 261 261 261 261 260 259 258 258
296 293 292 290 288 287 291 291 289 286 287 290 290 289 289 289 290 292 291 290 288 288 288 288 288 287 283 280 278 275 274 271 270 271 267 264 263 263 262 262 262 258 256
301 300 295 292 288 289 289 291 290 289 290 292 290 289 289 291 294 297 298 296 294 291 291 290 290 291 287 285 283 280 277 274 273 273 271 268 266 266 265 264 263 262 258
308 304 302 299 295 293 290 291 292 290 290 292 292 292 293 294 297 299 299 300 299 296 295 293 294 292 291 289 288 286 282 277 277 276 274 272 269 268 266 265 264 264 261
309 309 308 303 298 295 295 294 291 288 286 286 290 293 295 295 296 297 299 301 301 301 298 296 295 293 292 291 292 292 288 284 282 280 276 274 272 272 269 267 267 266 264
311 315 313 308 305 302 301 298 292 289 287 287 290 294 297 297 297 299 301 304 304 304 302 299 298 297 294 293 292 293 292 290 287 282 278 277 276 276 274 272 271 270 268
Height
5829 5828 5827 5826 5825 5824 5823 5822 5822 5821 5820 5820 5820 5820 5819 5819 5819 5819 5819 5818 5819 5820 5820 5821 5821 5822 5822 5823 5824 5825 5826 5828 5829 5831 5833 5835 5836 5838 5839 5841 5843 5844 5846
5823 5821 5820 5819 5818 5818 5817 5816 5815 5815 5814 5814 5814 5814 5814 5813 5813 5813 5813 5813 5813 5814 5814 5815 5816 5817 5817 5818 5819 5820 5821 5822 5824 5825 5827 5829 5831 5832 5834 5835 5837 5838 5840
5816 5815 5813 5812 5812 5812 5811 5810 5809 5809 5809 5808 5808 5808 5808 5808 5807 5807 5807 5807 5807 5808 5808 5809 5810 5811 5812 5813 5813 5814 5815 5816 5818 5820 5821 5823 5825 5826 5828 5829 5831 5833 5834
5808 5807 5806 5805 5805 5805 5804 5803 5803 5803 5802 5802 5802 5802 5802 5802 5801 5801 5801 5801 5801 5802 5802 5803 5804 5805 5806 5807 5807 5808 5809 5811 5812 5814 5815 5817 5818 5820 5821 5823 5825 5826 5828
5800 5798 5798 5798 5798 5798 5797 5797 5797 5796 5796 5796 5796 5795 5795 5795 5795 5795 5795 5795 5795 5795 5796 5796 5797 5798 5799 5800 5801 5802 5803 5805 5806 5807 5809 5810 5812 5813 5815 5816 5818 5820 5822
5794 5793 5792 5791 5791 5792 5791 5790 5790 5790 5790 5790 5789 5789 5789 5789 5789 5789 5789 5789 5789 5789 5789 5790 5790 5791 5793 5793 5794 5795 5797 5798 5799 5801 5802 5803 5805 5806 5808 5810 5811 5813 5815
5787 5787 5786 5785 5785 5785 5785 5784 5784 5784 5783 5783 5783 5783 5782 5782 5782 5782 5782 5782 5783 5783 5783 5783 5784 5785 5786 5787 5788 5789 5790 5791 5792 5793 5795 5796 5797 5799 5800 5802 5804 5806 5808
5781 5781 5780 5779 5779 5778 5778 5778 5777 5777 5777 5777 5776 5776 5776 5777 5776 5776 5776 5776 5776 5777 5777 5777 5778 5778 5779 5780 5781 5782 5783 5784 5785 5786 5787 5788 5790 5791 5793 5795 5797 5799 5801
5776 5775 5774 5773 5772 5771 5771 5771 5771 5770 5770 5770 5769 5769 5769 5769 5769 5769 5769 5769 5769 5769 5770 5770 5771 5771 5772 5773 5774 5775 5776 5777 5778 5778 5779 5780 5782 5783 5785 5787 5789 5791 5793
5769 5768 5767 5766 5765 5764 5764 5764 5764 5763 5763 5763 5763 5763 5763 5762 5761 5762 5762 5762 5762 5762 5762 5762 5763 5764 5764 5765 5766 5767 5767 5768 5769 5770 5771 5772 5773 5775 5777 5779 5781 5783 5785
5762 5761 5760 5759 5758 5758 5757 5757 5757 5757 5756 5756 5756 5756 5755 5754 5754 5754 5755 5755 5754 5754 5754 5754 5755 5755 5756 5757 5757 5758 5758 5759 5760 5761 5762 5763 5764 5766 5767 5769 5771 5774 5776
5755 5754 5753 5752 5752 5751 5750 5750 5750 5749 5749 5749 5749 5748 5748 5747 5747 5747 5747 5747 5747 5746 5746 5746 5746 5747 5747 5748 5748 5749 5749 5750 5750 5751 5752 5753 5754 5756 5758 5759 5761 5764 5766
5747 5747 5746 5745 5745 5745 5744 5744 5743 5743 5742 5742 5742 5741 5741 5740 5739 5739 5739 5739 5739 5738 5738 5738 5737 5738 5738 5738 5738 5739 5739 5740 5740 5742 5743 5744 5745 5746 5748 5750 5752 5754 5756
5741 5740 5739 5739 5739 5739 5738 5738 5737 5736 5735 5735 5735 5734 5733 5732 5731 5731 5730 5730 5730 5730 5730 5729 5728 5728 5729 5729 5729 5729 5729 5730 5730 5731 5732 5733 5735 5736 5738 5740 5742 5744 5746
5734 5734 5733 5733 5733 5732 5732 5731 5731 5730 5729 5728 5727 5726 5725 5724 5723 5722 5722 5722 5722 5722 5722 5721 5720 5720 5720 5720 5719 5719 5719 5720 5720 5721 5722 5723 5724 5726 5728 5730 5732 5734 5736
5728 5728 5727 5727 5727 5726 5726 5725 5725 5724 5723 5722 5720 5719 5717 5716 5715 5714 5714 5713 5713 5713 5713 5712 5712 5711 5711 5711 5710 5709 5710 5710 5710 5711 5711 5713 5714 5715 5717 5719 5721 5723 5725
5722 5722 5722 5722 5721 5721 5721 5720 5719 5718 5717 5715 5713 5712 5710 5709 5708 5707 5706 5706 5705 5705 5704 5704 5703 5702 5702 5701 5701 5700 5700 5700 5700 5701 5701 5702 5703 5705 5707 5708 5710 5712 5714
5717 5716 5716 5716 5716 5716 5715 5714 5713 5712 5711 5709 5707 5706 5704 5703 5702 5701 5700 5699 5698 5697 5697 5696 5695 5694 5693 5692 5692 5691 5691 5691 5691 5691 5692 5692 5693 5694 5696 5698 5700 5701 5703
5712 5712 5711 5711 5711 5711 5711 5709 5708 5707 5705 5704 5702 5700 5699 5698 5697 5695 5694 5693 5692 5691 5690 5689 5688 5686 5685 5684 5683 5683 5682 5682 5682 5682 5682 5683 5683 5684 5686 5687 5688 5690 5692
5709 5708 5707 5707 5706 5706 5705 5704 5703 5702 5700 5698 5697 5695 5694 5692 5691 5690 5689 5687 5686 5685 5683 5682 5680 5679 5677 5676 5675 5675 5674 5673 5673 5672 5673 5673 5674 5674 5675 5677 5678 5679 5680
5705 5704 5703 5703 5702 5701 5700 5699 5698 5696 5695 5693 5692 5690 5689 5687 5686 5685 5683 5682 5680 5679 5677 5675 5674 5672 5670 5669 5668 5667 5666 5665 5665 5664 5664 5664 5664 5665 5665 5666 5667 5667 5668
5701 5700 5699 5698 5697 5696 5695 5694 5693 5691 5690 5688 5687 5686 5684 5683 5681 5680 5678 5676 5675 5673 5671 5669 5667 5665 5664 5662 5661 5660 5659 5658 5658 5657 5655 5655 5655 5655 5655 5656 5656 5657 5657
5697 5696 5694 5693 5692 5691 5690 5689 5687 5686 5685 5683 5682 5681 5680 5678 5677 5675 5673 5671 5669 5667 5665 5664 5662 5659 5657 5656 5654 5653 5652 5651 5649 5648 5647 5647 5646 5646 5646 5646 5646 5647 5647
5694 5692 5691 5689 5688 5687 5686 5684 5683 5681 5680 5679 5678 5677 5675 5673 5672 5670 5668 5666 5664 5662 5660 5658 5656 5653 5651 5649 5648 5646 5645 5644 5642 5640 5639 5639 5639 5638 5638 5637 5637 5637 5637
5691 5689 5688 5686 5685 5683 5682 5680 5678 5677 5676 5675 5673 5672 5671 5669 5667 5665 5664 5662 5659 5657 5655 5652 5650 5648 5646 5644 5642 5640 5638 5637 5635 5633 5632 5631 5631 5630 5630 5629 5628 5628 5627
5688 5686 5684 5683 5681 5679 5678 5676 5674 5673 5671 5670 5669 5667 5666 5664 5662 5660 5658 5656 5654 5652 5650 5647 5645 5642 5640 5638 5636 5634 5632 5631 5629 5627 5625 5625 5624 5623 5622 5621 5620 5619 5618